Location: Hains Lake
(37.8540°N, 99.8578°W)
Time: 12:46:13
(UTC+00:00)

ATLAS 3B R/B - Pass Details

Date: 11 December 2019
Orbit: 1027 x 1168 km, 63.8° (Epoch: 16 January)

Event Time Altitude Azimuth Distance (km) Brightness Sun altitude
Rises 13:01:13 0° 185° (S) 3,836 5.9 -8.6°
Reaches altitude 10° 13:04:04 10° 177° (S) 2,866 5.3 -8.1°
Maximum altitude 13:10:08 37° 113° (ESE) 1,570 4.5 -7.0°
Drops below altitude 10° 13:16:06 10° 49° (NE) 2,829 5.3 -5.9°
Sets 13:18:53 0° 41° (NE) 3,781 5.8 -5.4°
